Theta_e
310 309 308 308 309 308 308 308 307 307 306 307 306 306 306 306 305 305 305 304 304 303 303 302 301 301 300 302 299 299 299 299 298 298 298 297 298 298 298 299 299 299 300 300 300 300 301 300 300 300 300 300 300 301 301 301 302 302 304 305 306 307 309 309 307 308 312 318 319 319 320 318 318 319 320 321 320 319 317 317 315 316 316 316 316
311 310 308 309 308 308 308 308 308 306 306 306 306 305 305 305 305 305 305 303 303 303 302 300 300 299 299 300 299 299 298 298 297 298 298 297 296 298 299 297 297 298 298 298 299 300 300 299 300 300 300 300 300 300 300 300 300 301 301 302 303 305 308 308 308 308 307 313 315 318 318 317 318 317 319 320 319 318 317 318 316 315 315 314 314
310 310 308 307 307 308 308 307 307 306 305 305 305 305 305 304 305 305 304 302 302 302 301 301 300 299 298 298 298 297 298 298 297 298 297 297 296 296 298 296 297 298 297 298 298 299 298 299 299 299 301 300 300 300 300 300 300 301 300 301 301 303 305 307 307 306 307 308 313 314 316 316 317 320 320 320 320 320 318 317 317 316 315 313 313
313 312 311 309 306 305 306 307 306 306 305 304 304 304 304 304 305 304 303 302 302 301 301 301 300 298 299 297 296 296 297 298 298 297 297 297 296 297 296 296 296 297 297 297 298 298 298 298 298 299 299 299 299 299 300 300 300 300 300 300 300 301 302 303 307 307 307 307 310 313 316 316 317 319 320 319 318 317 317 317 313 314 314 314 313
313 313 312 310 308 306 304 304 305 305 305 304 303 303 303 303 303 303 302 302 301 301 301 299 298 298 298 297 296 296 296 296 296 295 295 296 296 296 296 295 296 296 297 297 300 299 299 299 300 300 300 299 299 299 299 299 300 300 300 300 300 301 302 302 303 307 307 305 305 308 313 315 317 317 318 317 316 314 311 314 314 314 312 312 312
313 312 311 310 308 306 305 304 303 302 304 303 303 303 303 303 303 302 302 301 299 300 300 299 300 297 297 296 296 295 295 295 295 295 295 295 295 295 295 296 296 296 297 297 298 299 299 300 300 301 301 300 300 300 300 300 300 300 300 300 301 301 300 300 302 302 302 303 303 303 307 309 313 314 316 316 315 314 311 310 308 309 311 309 308
312 311 311 310 309 308 307 306 305 304 304 304 304 304 303 303 302 302 302 301 300 298 297 299 298 297 297 296 296 296 295 294 294 294 294 294 294 295 295 295 296 296 296 297 298 298 299 299 300 301 300 300 300 300 300 300 301 301 301 301 302 302 301 300 300 299 300 301 302 303 304 307 311 311 315 315 314 313 312 310 309 310 307 310 311
311 311 310 310 310 309 308 307 306 305 305 305 304 304 303 302 302 301 301 300 299 298 298 298 297 297 296 296 296 296 294 294 293 293 294 294 294 295 295 296 296 295 296 296 297 297 297 297 297 298 298 298 299 300 300 300 300 299 300 301 300 299 299 299 299 300 300 299 299 299 301 303 305 309 312 311 312 310 311 310 310 308 309 309 312
310 310 310 310 309 308 307 306 305 305 305 305 304 304 304 303 301 301 300 300 300 298 297 297 297 295 294 295 295 296 295 295 294 294 294 294 293 294 295 295 294 294 294 294 294 295 295 295 296 296 299 301 300 299 298 298 298 297 298 298 297 297 297 297 298 298 298 298 298 300 300 300 303 305 306 304 305 309 313 310 309 310 307 306 307
310 310 310 310 308 307 306 305 305 305 305 304 304 304 303 302 302 301 299 299 298 297 296 296 296 295 294 293 292 295 294 294 299 298 297 296 295 295 294 294 294 293 294 293 293 293 294 294 297 299 299 299 298 296 295 296 297 297 297 297 297 296 296 296 296 296 297 296 297 298 298 298 299 302 304 307 308 308 308 307 307 306 303 306 305
309 309 309 308 307 306 306 305 305 304 305 304 304 304 303 302 301 300 298 298 297 298 296 295 293 293 294 293 292 293 294 295 296 293 293 294 294 293 293 293 293 293 293 292 292 293 293 293 293 296 298 297 297 295 294 294 294 294 295 296 297 297 296 295 295 296 296 296 297 298 298 298 299 300 302 304 306 306 306 304 306 303 304 304 305
308 308 308 307 306 306 306 305 304 305 304 304 304 304 303 302 300 299 298 297 297 296 294 293 293 293 292 291 291 292 293 296 293 293 293 293 294 294 293 292 293 292 292 292 292 292 292 292 293 294 294 294 294 294 295 294 294 293 293 293 293 293 294 295 295 295 295 295 295 296 297 297 299 299 300 300 303 305 306 306 306 305 304 303 305
307 307 307 306 306 306 304 304 304 303 303 303 303 302 302 301 299 298 298 298 296 294 293 293 293 292 292 291 290 292 292 294 293 293 293 292 292 293 292 291 291 291 291 291 291 291 291 292 292 292 293 296 297 295 294 294 294 294 294 294 294 293 292 291 292 295 296 295 294 295 295 296 297 298 300 301 303 303 304 304 304 303 305 304 305
306 306 306 306 306 306 305 304 304 303 303 303 302 301 300 300 299 299 297 295 294 293 293 293 292 292 290 290 290 290 289 293 292 293 293 292 291 291 291 291 290 290 290 290 291 290 290 290 290 290 291 292 292 292 292 292 292 292 292 292 292 293 293 292 292 292 294 295 295 294 296 297 297 299 301 302 303 303 303 303 303 303 302 304 303
305 306 306 306 306 305 304 304 303 303 303 302 302 301 299 297 297 296 296 294 293 293 293 292 291 291 291 289 288 288 290 293 291 291 291 291 291 291 290 290 290 290 290 290 290 290 290 290 290 290 290 290 291 292 291 291 291 291 291 291 291 292 292 293 293 294 295 296 296 296 297 298 298 300 302 304 306 307 307 305 304 304 303 296 295
304 304 304 303 303 302 301 300 299 299 301 300 299 298 297 296 295 294 293 292 292 292 291 292 292 291 290 287 288 287 287 290 290 291 291 290 291 291 289 289 288 289 289 289 289 289 289 289 289 289 289 290 292 291 292 292 291 290 290 290 290 291 292 294 294 295 295 295 295 296 298 299 297 300 302 304 305 304 302 302 303 302 300 298 300
303 303 303 302 302 302 301 299 299 298 298 298 296 296 295 293 293 293 293 292 292 291 291 291 291 290 288 287 286 285 285 289 290 290 290 290 290 289 288 288 288 288 288 288 289 289 289 289 289 289 289 289 291 290 290 291 290 289 289 289 290 290 291 293 294 293 293 293 293 293 293 293 293 293 293 293 295 298 298 297 297 301 300 300 300
303 303 303 302 302 301 301 301 301 301 300 298 296 295 294 294 293 293 293 291 290 291 290 290 289 289 288 287 286 285 285 289 291 290 290 290 291 289 288 288 287 287 287 288 288 288 289 292 293 290 290 290 290 290 290 290 289 289 289 289 289 289 289 291 293 293 294 293 293 292 292 292 293 293 293 293 294 295 296 294 299 302 300 301 300
303 303 303 302 302 302 302 302 301 300 299 297 296 295 294 294 293 292 292 291 291 289 291 289 288 287 288 287 293 290 285 287 291 290 290 290 290 289 288 287 287 287 287 287 287 288 288 290 292 292 291 291 290 289 289 290 289 289 289 289 288 288 289 291 291 292 293 293 294 294 294 294 295 295 295 294 294 295 297 298 301 302 301 301 301
304 303 302 302 302 302 301 301 300 298 297 295 295 294 293 293 292 291 290 290 289 288 290 288 288 288 287 289 288 287 285 284 287 289 290 290 291 290 288 287 286 286 287 287 287 288 289 289 290 289 289 289 289 289 288 289 289 289 289 288 288 288 291 291 292 292 292 293 294 295 295 296 297 297 297 297 298 299 298 299 302 304 303 302 302
303 302 301 301 301 301 301 299 298 297 296 294 294 293 293 292 291 290 289 287 286 286 287 287 287 286 285 284 284 283 285 284 286 289 290 290 290 290 288 287 287 287 287 287 288 288 288 288 289 290 289 289 289 289 289 289 289 289 289 288 289 290 291 290 291 292 292 293 293 294 294 295 296 296 296 297 299 300 301 301 303 304 305 304 303
302 300 299 298 298 299 299 298 297 295 295 294 293 292 291 291 291 289 288 286 285 285 284 286 285 284 283 283 283 283 286 291 286 289 289 290 289 290 288 288 288 288 287 287 288 288 288 288 289 289 289 289 289 289 289 289 289 290 289 289 289 289 290 291 291 291 291 291 292 292 293 294 294 295 295 296 296 298 300 302 302 303 305 306 306
300 300 299 298 297 297 297 297 296 295 294 294 293 290 289 289 287 287 286 284 284 283 283 283 283 283 283 284 282 281 282 285 289 288 289 289 289 289 289 288 288 289 287 287 287 287 288 289 289 290 289 289 288 288 288 288 289 289 288 288 288 288 289 290 290 290 290 290 290 290 291 292 293 293 293 294 294 295 297 299 302 304 304 305 307
299 298 298 298 298 298 297 296 296 295 295 293 292 290 289 289 288 288 285 286 284 284 283 284 282 282 283 284 285 282 282 282 286 288 288 288 288 288 288 288 288 288 288 287 288 288 288 288 289 289 288 288 288 288 288 288 288 288 288 288 288 288 289 289 288 288 288 288 288 289 290 292 292 292 292 292 293 294 296 298 301 304 305 306 306
298 298 298 298 297 297 296 296 296 295 294 292 290 289 288 288 286 284 286 285 285 285 286 284 282 283 284 284 284 283 282 283 283 286 287 288 288 288 288 288 288 288 287 288 288 288 288 288 288 288 287 287 287 288 288 288 287 287 288 288 289 289 288 288 288 288 287 287 288 289 290 291 293 294 294 293 293 293 294 296 299 302 305 305 305
297 297 297 297 297 297 295 294 294 294 293 292 291 289 289 289 287 284 285 285 285 285 283 283 283 282 283 284 282 282 282 282 283 284 287 287 287 287 288 288 288 288 288 287 287 288 287 287 287 287 287 288 288 288 287 288 288 288 288 288 288 288 288 288 288 287 287 288 288 288 290 292 293 294 294 294 293 292 293 293 295 296 299 300 299
296 296 295 295 295 295 293 293 293 292 291 290 290 290 288 287 287 285 285 283 283 283 283 283 283 283 284 284 281 282 282 283 283 283 284 284 285 287 287 287 288 288 287 287 287 287 287 287 287 287 287 287 287 287 287 288 288 288 288 288 288 288 288 288 287 287 288 288 288 289 291 292 294 292 292 292 292 292 293 292 294 296 298 299 299
295 295 294 293 293 294 292 290 291 290 289 289 287 286 286 287 287 286 284 283 282 283 281 282 283 284 284 282 281 281 282 282 283 283 284 285 286 286 286 286 286 286 286 286 286 286 286 287 286 287 287 286 287 287 287 287 287 286 287 287 288 288 289 289 289 288 289 289 290 290 291 292 291 292 292 291 291 291 292 293 294 296 297 297 296
293 292 293 293 293 292 292 291 290 289 288 286 285 286 287 287 286 285 283 284 285 285 284 283 285 283 282 282 280 282 282 282 284 287 287 287 286 285 285 285 286 285 286 286 286 285 285 285 285 285 285 285 285 285 286 286 286 287 287 287 287 288 288 287 287 287 288 288 288 289 289 290 291 291 291 291 291 291 291 293 295 296 295 297 296
293 292 293 293 290 290 290 289 289 289 288 287 287 286 285 288 287 285 282 288 288 288 288 286 283 281 281 282 283 282 282 285 287 287 287 287 287 287 287 287 286 286 286 286 286 284 284 284 284 284 285 285 285 285 286 286 286 287 287 287 287 287 287 287 287 288 288 288 288 288 288 289 289 290 291 291 291 291 292 292 294 295 293 293 293
293 292 292 290 289 290 290 289 289 289 288 288 287 286 285 286 287 287 288 288 288 288 288 288 288 286 285 283 283 287 287 287 287 287 287 287 287 287 287 286 286 286 286 285 284 284 283 283 284 284 284 285 284 285 285 285 286 286 286 287 287 286 286 287 288 288 287 287 288 288 288 288 289 289 290 290 291 291 292 292 294 294 294 293 292
291 291 290 289 289 289 289 289 289 288 286 285 285 284 284 286 287 288 288 288 288 288 288 288 287 287 287 287 286 283 286 287 287 287 287 287 287 287 286 286 286 286 286 286 283 283 283 283 283 283 284 284 284 285 285 285 285 286 286 286 286 286 286 286 287 288 288 288 288 288 288 289 289 289 289 290 290 291 291 290 291 292 293 293 292
291 289 289 289 289 289 289 288 288 287 286 285 285 285 284 284 283 282 282 285 287 286 286 287 287 287 287 287 288 287 287 287 287 287 287 287 287 286 286 286 286 286 286 284 283 283 283 283 283 283 284 283 284 284 284 285 285 285 286 286 286 287 287 287 287 288 288 288 288 288 289 289 289 289 289 289 289 290 289 290 290 291 290 290 289
290 290 290 290 290 289 288 288 287 286 286 285 284 285 283 283 281 281 280 281 282 283 284 285 286 286 287 287 287 287 287 287 287 287 287 287 287 286 286 285 286 286 285 283 283 282 283 283 283 283 283 284 284 284 284 284 285 285 286 287 288 288 289 289 288 287 288 288 289 289 289 289 289 289 289 289 289 290 289 289 290 289 289 289 288
290 289 288 288 290 289 287 287 286 285 285 285 284 283 283 281 280 280 281 280 279 279 279 281 283 286 282 285 286 287 287 287 287 287 287 287 286 286 286 284 283 283 284 284 283 283 283 283 283 283 283 283 284 284 284 284 285 285 285 286 287 288 288 288 288 288 288 288 289 289 289 289 290 290 289 289 288 289 289 289 289 289 289 288 288
290 290 289 289 288 287 287 286 286 285 285 284 285 283 282 281 280 280 279 280 280 280 278 277 276 281 285 286 286 286 287 287 286 287 286 286 286 286 283 282 282 282 282 283 283 283 283 283 283 283 283 284 284 284 284 284 284 285 285 286 286 287 287 287 288 288 288 289 289 289 289 290 290 289 289 289 288 289 289 289 289 288 288 288 288
290 289 288 287 287 286 286 286 286 285 284 283 282 281 280 280 279 279 279 280 278 278 279 278 279 280 282 280 284 285 286 286 286 286 286 286 286 285 284 283 282 282 282 282 283 283 283 283 283 283 283 283 284 284 284 284 285 285 285 285 285 286 286 287 287 288 288 289 289 289 289 290 289 289 289 288 288 288 288 288 288 287 288 287 287
290 289 287 287 287 287 286 286 286 285 284 282 281 280 281 280 280 279 278 277 279 278 279 278 282 279 277 279 285 282 283 285 286 286 286 285 284 284 284 283 283 282 282 283 283 283 282 283 283 283 283 284 283 284 284 284 284 285 285 285 285 285 286 286 286 287 288 289 289 289 289 289 289 289 289 288 288 288 288 287 288 287 287 287 287
288 287 287 286 286 287 287 285 284 284 282 281 281 281 279 278 279 279 279 277 277 276 277 277 277 277 278 279 279 282 282 281 281 282 284 284 284 284 283 283 283 283 283 283 283 283 283 283 283 284 284 284 283 284 284 284 284 285 285 285 285 285 285 285 286 286 286 287 288 288 289 288 288 289 289 288 287 287 287 287 287 287 287 287 287
287 287 286 286 286 286 285 284 284 283 282 281 282 280 280 280 279 279 278 277 279 277 275 276 278 277 278 278 279 280 279 279 280 282 283 283 283 283 283 283 283 283 282 283 283 283 283 283 283 283 283 283 283 283 284 284 284 285 285 285 285 285 285 285 285 286 286 286 287 287 287 287 288 288 288 288 288 288 287 287 287 287 287 287 286
286 286 285 285 285 285 285 284 283 281 281 281 281 281 280 279 280 279 276 277 278 279 278 278 280 280 280 281 285 284 279 278 280 282 283 283 283 283 283 283 283 283 283 283 283 283 283 283 283 283 283 283 284 284 284 284 284 284 285 285 285 285 285 285 285 285 286 286 287 287 287 287 288 288 287 287 288 288 287 287 287 287 286 286 285
287 287 286 285 285 285 284 282 282 283 283 282 283 281 280 279 279 278 278 278 279 278 277 278 278 279 281 285 285 285 281 279 281 282 283 284 284 284 284 284 284 284 283 283 283 283 283 283 283 283 283 283 283 283 284 283 284 284 284 284 284 285 285 285 285 285 286 286 286 286 287 287 287 287 287 287 287 287 287 287 286 286 286 286 285
287 286 285 285 285 284 283 283 283 284 283 283 282 283 282 282 281 281 279 279 278 278 277 278 278 279 280 281 282 282 280 279 281 282 282 283 284 284 284 284 284 284 284 284 284 284 284 284 283 284 284 284 284 284 283 283 284 284 284 284 284 284 284 285 285 285 285 286 286 286 286 286 286 286 286 286 286 286 286 286 286 286 286 286 285
286 286 286 285 284 284 283 283 283 283 283 282 283 283 283 282 283 282 282 281 281 279 278 279 278 278 279 280 281 280 280 279 279 281 282 283 284 284 284 284 284 284 284 285 285 285 284 284 284 284 284 284 285 284 284 284 284 284 284 284 284 284 284 284 284 285 285 285 286 286 286 286 286 286 286 286 286 286 286 286 286 286 286 286 286
286 286 285 285 284 284 283 283 282 282 282 282 282 282 282 282 282 282 282 282 281 281 281 279 279 279 280 280 280 280 281 281 280 281 282 283 284 284 284 284 284 284 285 285 285 285 284 284 284 284 284 284 285 285 285 285 285 284 284 284 284 284 284 284 284 285 286 286 286 286 286 286 286 286 286 286 286 286 286 285 286 285 285 285 285
285 285 284 284 284 283 283 282 282 282 282 281 281 281 281 281 281 281 281 281 281 281 280 280 280 280 279 280 281 281 281 281 281 281 282 283 284 284 284 284 285 285 285 285 285 285 285 284 284 284 284 284 284 284 285 285 285 285 285 285 285 284 285 285 285 285 285 286 286 286 286 286 285 286 286 286 286 286 286 286 286 286 285 285 285
285 284 284 283 283 283 282 282 282 281 281 281 281 281 281 281 281 281 282 282 281 281 281 280 280 281 281 282 282 282 283 282 282 282 282 283 284 284 284 284 285 285 285 285 285 285 285 284 284 284 284 284 284 284 284 285 285 285 285 285 285 285 285 285 286 285 285 285 286 286 286 285 285 285 286 286 286 285 285 285 285 285 285 285 285
284 284 283 283 283 283 282 282 282 282 281 281 282 282 282 282 282 282 281 282 281 281 281 281 281 282 283 283 283 283 283 283 283 283 283 283 283 283 283 284 285 285 285 285 285 285 285 284 284 284 284 284 284 284 284 284 285 285 285 285 285 285 285 285 286 286 286 286 286 286 286 286 286 286 286 286 285 285 285 285 285 285 285 285 285
284 283 283 282 282 282 282 282 282 282 282 282 282 282 282 282 282 282 282 282 281 281 281 281 281 282 282 282 283 283 283 283 283 283 283 283 283 283 283 283 284 285 285 285 285 285 285 285 284 284 284 284 284 284 284 284 284 284 284 285 285 285 285 285 285 286 286 286 286 286 286 286 286 285 285 285 285 286 285 285 285 285 285 285 285
282 282 282 281 281 282 282 283 283 283 283 283 282 282 282 282 281 281 281 281 281 281 281 281 281 281 281 281 282 282 282 282 282 282 282 283 283 283 282 282 284 285 285 285 285 285 285 285 284 284 284 284 284 284 284 284 284 284 284 284 284 284 285 285 285 285 286 286 286 286 286 286 286 286 286 285 285 285 285 285 285 285 285 285 285
282 281 281 281 281 282 282 282 282 282 282 282 282 282 282 281 281 281 281 281 280 280 281 281 281 281 281 281 281 281 281 281 282 282 282 282 282 283 282 282 283 284 285 285 285 285 285 284 284 284 285 284 284 284 284 284 284 284 284 284 284 284 284 285 285 285 285 286 286 286 286 286 285 285 285 285 285 285 285 285 285 285 285 285 285
Wind_Speed
11 12 10 10 10 11 10 9 8 7 7 8 9 8 8 7 7 7 5 5 5 5 4 4 4 3 3 3 2 1 0 2 3 4 3 3 4 3 4 4 4 4 4 5 4 4 5 5 4 3 2 3 3 3 3 3 2 3 3 4 5 4 5 6 9 10 9 6 6 6 6 5 5 4 8 8 8 7 6 6 4 5 6 7 7
9 6 6 8 10 11 10 9 9 7 8 7 8 8 8 8 7 7 7 6 6 6 5 4 4 3 3 2 1 0 0 2 2 2 2 3 3 2 3 3 4 4 4 5 5 5 5 6 6 4 4 4 3 3 3 3 3 3 3 3 4 4 3 6 7 8 11 8 7 6 5 3 7 4 7 9 9 7 7 7 5 5 7 6 6
4 3 3 5 8 8 8 8 8 8 9 7 7 7 7 7 7 9 7 7 5 7 6 5 4 4 3 2 1 1 0 0 1 0 0 1 2 3 3 3 4 4 4 5 5 5 5 5 6 5 4 5 5 4 3 4 3 4 4 3 4 4 4 5 7 9 9 10 7 8 6 4 5 8 7 8 9 7 7 7 7 5 4 6 6
11 11 11 10 4 3 5 6 8 9 9 7 7 5 6 6 6 7 7 7 7 5 6 6 5 4 3 2 2 2 1 0 0 0 1 2 3 3 4 4 4 4 5 5 5 5 5 5 5 5 4 6 6 6 4 3 4 4 4 3 4 5 4 4 5 7 8 10 8 6 7 8 5 6 7 5 6 6 6 5 2 5 5 5 6
10 11 11 10 9 7 3 2 5 8 8 7 6 5 5 6 4 6 6 6 5 6 4 5 5 5 5 4 4 3 2 2 1 2 3 3 3 4 4 4 4 4 5 5 5 6 6 5 6 5 6 7 7 6 5 5 5 4 5 5 5 5 5 4 5 6 7 9 10 7 7 7 6 7 6 7 6 5 4 5 5 5 5 4 4
7 6 7 9 8 9 9 6 3 3 5 7 7 7 6 6 6 5 6 6 4 4 5 4 5 5 5 5 4 4 4 3 3 3 3 3 3 3 4 4 4 5 5 5 5 5 6 6 6 6 7 7 7 8 7 7 7 7 7 7 6 5 5 5 4 5 6 9 9 11 6 7 8 7 5 5 6 7 5 5 4 4 4 4 3
6 7 9 11 11 11 11 11 11 7 5 6 7 8 7 7 7 7 5 7 6 4 4 5 4 6 5 5 5 4 4 4 3 3 3 3 4 4 4 5 5 5 4 5 5 5 5 5 5 5 7 7 8 8 8 8 7 8 7 7 6 6 6 6 6 6 6 7 8 8 8 6 6 8 7 4 5 4 5 5 6 4 2 4 6
5 7 8 9 10 12 12 12 14 14 12 10 10 9 8 7 6 5 5 6 6 6 6 6 5 5 6 5 5 4 4 3 2 2 2 3 4 4 5 5 6 6 5 6 5 5 5 5 5 5 5 6 7 8 8 9 8 9 8 8 8 9 9 8 8 7 7 7 7 9 7 7 6 7 6 4 5 5 5 6 8 6 7 6 6
5 6 7 8 9 9 8 7 8 10 11 12 12 12 11 9 7 6 5 6 5 6 5 6 5 4 4 4 4 3 3 2 2 2 3 4 4 5 6 6 7 7 7 6 6 6 6 5 5 6 7 10 12 11 10 10 8 10 9 7 9 9 9 9 9 8 8 8 9 7 9 8 6 6 6 5 5 7 5 4 7 7 4 4 4
7 8 9 10 7 7 9 10 11 11 11 11 11 12 11 10 9 7 6 6 6 6 6 5 6 6 5 3 3 3 2 1 2 5 5 4 4 5 6 6 7 7 8 8 7 6 7 6 6 11 13 13 12 13 13 14 13 11 10 8 9 9 9 9 9 8 9 10 10 9 10 9 6 6 7 6 5 5 7 4 6 5 0 2 3
7 8 10 8 8 9 10 11 12 13 13 12 12 13 13 11 10 9 8 7 8 6 6 6 4 4 5 5 3 1 0 1 4 6 7 9 6 5 5 6 6 7 7 8 8 8 6 6 6 8 10 10 10 13 13 14 14 13 14 13 11 10 10 11 10 8 9 9 9 9 10 10 9 6 8 7 7 7 6 4 5 3 5 5 6
7 8 9 7 8 10 9 9 10 12 14 15 13 12 12 11 11 10 10 8 7 6 5 5 5 5 4 4 2 0 0 3 5 7 8 9 9 7 5 6 6 6 7 8 8 7 7 7 6 6 6 7 8 9 11 14 15 15 15 15 15 15 14 13 12 11 10 10 11 11 10 11 10 7 6 4 7 7 7 6 5 6 6 6 5
7 7 7 8 9 9 9 11 9 7 5 5 5 8 10 10 10 9 10 8 7 7 6 6 5 4 5 4 2 0 1 4 6 8 9 10 11 10 6 6 7 7 7 8 8 8 7 8 8 6 6 11 11 9 8 9 12 15 15 16 16 16 15 16 16 15 12 12 13 14 12 10 12 10 6 7 6 9 7 6 5 5 7 7 7
7 8 8 9 10 11 12 13 14 13 12 12 10 9 10 11 10 9 8 7 7 6 6 6 5 5 4 4 2 2 2 5 7 8 10 11 12 10 6 7 7 8 8 8 8 9 9 9 9 9 6 7 8 9 8 9 9 10 10 10 10 12 14 16 16 18 16 14 13 15 13 9 13 9 7 5 8 9 8 9 5 7 7 9 5
8 8 10 10 9 10 11 10 11 13 12 12 11 10 9 8 9 8 8 8 8 8 8 6 5 5 4 4 3 2 3 6 7 9 10 12 13 10 6 7 7 7 8 8 9 10 9 9 9 10 9 8 7 9 9 9 9 10 11 11 11 11 10 10 10 11 11 11 12 13 13 11 12 11 10 7 8 8 7 7 6 7 5 1 3
9 7 8 6 5 4 4 2 2 2 6 9 10 10 9 10 10 7 6 6 6 6 4 6 6 5 4 4 3 3 4 8 8 9 11 11 12 7 6 7 8 8 8 9 9 9 8 9 9 10 10 9 10 14 13 11 11 12 13 12 12 11 11 10 13 14 13 13 13 13 11 10 10 8 7 7 6 4 6 8 8 6 5 5 9
9 8 8 7 7 8 9 11 11 8 7 7 4 7 10 9 8 7 8 7 7 7 7 5 6 6 4 4 4 4 4 7 8 10 10 12 9 6 6 7 7 8 9 9 9 9 8 8 9 9 10 10 12 14 15 14 12 13 13 13 11 11 11 7 13 17 19 20 21 22 23 24 23 23 22 18 12 9 9 10 11 7 8 10 8
9 8 9 9 9 10 11 13 14 14 13 12 9 7 7 7 7 6 9 8 7 7 6 5 4 5 5 5 6 4 4 6 8 9 10 11 10 7 7 7 9 9 10 9 8 9 9 16 16 11 11 10 12 14 13 11 12 12 13 14 14 13 11 7 8 9 14 19 21 22 22 22 22 23 22 20 18 12 10 12 10 6 10 9 9
9 9 9 9 10 11 11 12 13 13 11 10 10 11 10 10 8 7 7 7 7 6 5 6 4 4 5 5 8 5 4 5 7 9 10 11 9 6 7 7 9 10 10 10 8 8 9 10 16 16 14 14 17 17 17 14 13 13 12 13 15 14 10 6 10 11 9 10 11 12 14 17 16 14 13 18 18 16 13 13 10 10 11 9 10
8 7 6 9 10 11 11 12 11 12 10 7 8 9 8 8 8 8 7 7 7 5 4 5 6 6 6 5 5 4 3 4 4 9 10 11 12 9 7 8 10 12 10 10 11 10 9 10 11 15 17 18 19 20 19 19 16 15 13 15 16 15 7 9 11 11 12 11 11 11 13 11 11 11 10 10 12 14 14 13 12 11 11 11 10
7 6 6 7 9 11 11 13 13 12 12 11 10 8 8 9 7 6 6 4 4 4 4 5 5 5 4 4 4 3 3 3 4 9 10 12 13 12 8 9 10 11 11 11 10 11 10 9 9 13 18 19 19 20 21 20 20 17 15 15 15 13 12 12 13 14 13 11 10 11 11 10 11 10 10 9 8 7 7 9 10 10 11 10 11
7 6 5 3 1 5 9 9 11 11 9 10 11 9 6 7 8 7 6 6 5 5 4 4 4 4 4 4 3 4 3 4 4 7 11 13 13 15 10 10 11 12 13 11 10 9 10 9 8 10 14 17 17 19 20 20 21 16 16 18 20 19 16 12 11 10 11 11 10 11 11 11 10 9 8 8 7 7 7 8 9 10 10 10 11
8 9 9 9 9 6 6 12 12 9 9 10 11 9 5 5 4 4 5 4 5 4 4 4 4 4 4 6 4 3 3 3 6 7 11 14 15 16 17 15 17 13 12 13 12 12 11 12 13 18 20 20 20 20 21 22 20 17 23 22 22 22 19 14 13 12 12 11 11 12 12 11 11 10 9 8 7 6 8 8 10 10 10 10 11
9 10 10 10 9 9 13 9 9 10 10 8 8 8 7 5 4 5 5 5 5 5 5 4 3 3 5 6 6 5 3 3 6 10 11 15 16 17 18 19 19 13 12 12 12 11 10 9 9 14 18 20 22 22 22 22 19 23 24 24 23 22 16 14 13 13 13 13 14 14 13 11 10 10 9 8 7 7 7 7 9 10 10 10 10
10 11 12 14 14 10 8 10 10 10 9 8 7 7 6 6 6 3 5 4 5 6 6 3 4 4 4 6 7 6 5 5 6 9 14 16 17 17 17 17 17 18 14 13 13 12 15 21 23 24 24 25 26 26 23 24 27 26 27 26 24 15 14 13 13 12 14 14 13 13 13 12 11 9 7 7 7 6 6 7 9 10 10 9 9
11 12 11 10 12 13 11 12 11 11 10 8 7 7 8 7 6 6 5 6 5 5 3 1 2 3 5 6 7 6 6 6 7 8 8 10 11 14 16 17 18 19 19 17 21 23 23 23 25 25 24 22 17 14 12 14 19 23 24 23 15 13 13 13 13 14 15 13 13 13 12 10 10 9 8 7 8 9 7 8 8 9 9 9 7
12 11 14 15 13 12 13 9 8 7 6 6 6 5 6 6 6 5 6 5 3 1 1 2 3 4 6 7 5 5 6 6 7 8 8 7 7 9 10 11 14 15 13 11 13 12 15 16 14 18 19 24 25 23 22 21 18 16 14 13 13 13 13 13 13 14 14 12 12 11 11 10 8 7 8 8 9 8 7 8 8 9 8 8 8
16 16 13 9 8 10 10 9 9 6 5 6 6 5 4 5 6 6 6 6 4 3 3 3 4 6 6 6 4 5 6 6 8 8 8 8 9 9 9 10 10 9 11 11 11 13 14 14 16 13 12 12 12 10 10 10 12 12 12 12 12 13 15 18 17 13 12 11 12 10 10 9 9 9 7 8 9 8 7 9 9 9 8 7 7
13 14 12 9 8 5 5 6 6 6 5 3 3 3 7 6 6 4 3 4 6 5 5 5 5 5 5 6 4 6 6 7 8 9 12 14 13 12 10 10 10 11 13 18 15 12 10 10 10 10 9 10 10 9 9 9 10 11 12 12 10 10 10 10 12 13 12 11 12 11 10 9 9 8 8 8 8 8 7 8 9 9 7 8 10
11 10 8 6 5 6 6 6 6 6 6 6 6 3 2 4 5 5 3 6 8 6 5 5 3 3 4 6 6 5 6 8 13 16 16 17 17 18 17 19 19 16 19 22 16 10 9 9 9 9 10 9 9 9 9 9 9 9 9 11 10 10 9 10 11 11 11 11 11 10 10 8 8 8 8 9 8 7 8 9 8 8 8 9 8
8 6 6 6 6 7 7 7 7 7 6 6 4 5 3 2 2 4 2 1 2 6 6 7 4 6 6 6 4 7 9 13 15 16 17 18 18 18 18 19 20 20 21 15 11 9 9 9 9 9 9 9 9 9 9 9 9 9 9 8 8 9 10 9 10 9 10 10 10 10 9 9 9 8 9 9 8 8 7 8 9 8 9 9 8
9 9 7 7 8 8 7 8 7 7 5 4 6 5 5 3 1 4 4 5 5 4 5 5 6 8 9 4 2 4 10 13 16 18 18 18 17 18 19 20 20 20 20 18 10 9 8 9 9 9 9 9 9 9 9 9 9 8 8 8 8 8 9 9 9 9 9 9 10 10 10 10 9 9 9 8 7 7 8 7 7 7 7 7 8
8 7 8 8 8 10 9 8 7 7 6 5 4 5 5 4 3 2 3 7 6 4 1 4 6 7 2 1 3 6 9 13 15 17 17 17 17 17 19 20 19 19 18 10 8 9 9 9 9 9 9 9 10 9 9 9 9 8 8 8 8 7 8 10 9 9 10 10 10 10 10 9 9 9 8 8 8 7 7 7 6 7 6 6 6
8 9 9 10 10 8 7 8 7 7 7 6 6 7 5 6 5 3 1 5 6 5 6 4 5 3 3 2 4 9 12 14 15 16 16 16 17 18 18 15 16 16 11 8 8 8 9 9 9 9 9 9 9 9 9 9 8 8 8 8 7 7 8 7 8 9 9 9 10 9 9 9 8 9 8 7 7 7 7 6 6 7 7 7 8
6 9 14 10 8 8 7 8 7 7 6 7 7 6 6 4 3 2 2 2 1 1 2 4 5 6 2 3 7 10 12 14 15 14 14 15 16 18 16 10 10 10 9 8 9 9 9 9 9 10 9 10 9 9 9 9 9 8 8 8 8 6 6 6 7 8 9 9 9 9 9 9 9 8 8 7 6 6 6 7 6 7 8 7 8
8 8 7 9 8 7 7 7 7 7 7 7 7 5 4 5 4 3 2 2 2 1 1 1 1 5 5 5 8 10 12 14 14 13 13 14 15 15 9 9 9 9 9 9 9 9 9 9 9 9 9 9 9 9 9 9 8 8 8 8 8 7 6 5 6 7 8 9 9 9 8 8 8 7 7 7 8 8 6 6 6 6 7 8 7
8 7 7 6 7 7 7 7 7 7 6 6 4 5 5 4 3 3 2 2 1 1 0 2 4 4 3 4 4 9 12 13 13 12 13 14 14 9 7 8 8 9 9 9 9 9 10 9 9 9 9 9 9 9 9 9 8 8 7 7 7 7 6 5 5 5 7 8 8 8 8 8 7 7 7 7 6 6 6 6 7 8 9 11 11
8 8 7 6 6 7 7 7 5 5 5 3 3 4 5 4 3 2 2 1 0 1 1 1 1 1 3 6 5 4 8 10 10 9 8 9 9 8 8 8 8 8 9 8 9 9 9 9 9 9 9 9 9 9 9 8 8 8 7 7 6 6 7 6 5 6 7 7 7 7 7 7 7 7 7 7 7 7 7 7 8 8 8 10 9
6 8 10 9 7 7 6 6 5 5 4 4 1 1 3 4 2 1 1 1 1 1 0 0 0 1 4 4 5 5 6 7 8 8 9 8 8 8 8 8 8 8 8 9 9 9 9 9 9 9 9 9 9 9 8 8 8 7 7 6 6 5 5 4 4 1 1 3 4 5 6 6 6 6 7 7 8 8 9 9 10 11 11 10 9
7 6 6 8 6 6 6 6 5 6 3 2 1 3 4 4 2 1 1 2 2 1 1 0 1 2 4 2 3 4 5 6 6 7 8 9 9 9 8 8 8 9 9 9 9 9 9 9 9 9 9 9 9 9 8 8 8 7 7 6 6 5 5 4 3 2 1 2 4 5 6 7 7 7 7 7 8 9 10 11 10 10 11 11 10
6 6 6 7 8 7 6 6 6 4 4 5 5 5 5 2 0 1 2 2 1 1 0 1 2 3 2 4 6 4 2 5 6 6 7 7 8 9 9 9 9 9 9 9 9 9 9 9 9 9 9 9 9 9 8 8 8 7 7 7 6 5 5 5 4 2 2 4 4 5 6 7 8 9 8 7 8 9 9 10 10 10 10 12 13
7 7 7 6 7 8 7 6 5 5 6 7 8 6 5 4 3 3 2 2 3 2 1 1 2 3 4 7 7 6 3 4 4 5 6 7 7 8 8 9 8 8 8 8 9 9 9 9 9 9 9 9 9 9 8 8 8 8 7 7 6 6 6 5 4 3 3 4 4 5 5 6 7 8 9 9 9 8 9 9 10 11 11 12 12
8 8 7 7 8 7 6 5 5 7 7 8 7 5 5 6 5 5 5 6 5 5 5 5 5 4 5 6 7 7 4 4 4 5 5 6 7 7 8 8 8 8 8 8 8 8 8 9 9 9 9 9 9 8 8 8 8 7 7 7 6 6 6 6 5 4 3 4 5 5 6 7 8 8 9 9 9 10 10 11 11 11 11 12 12
8 8 8 8 7 6 6 7 8 7 7 7 7 7 6 5 6 6 6 5 5 5 5 5 5 5 6 7 7 6 6 6 5 5 5 6 6 7 7 8 8 8 8 8 8 8 9 9 9 9 9 9 8 9 8 8 7 7 7 7 6 7 7 6 6 5 4 5 6 6 7 7 8 8 9 9 10 11 11 11 11 11 11 11 11
8 8 8 8 7 7 7 7 7 7 7 6 7 7 6 6 6 5 5 5 5 5 5 5 5 5 6 6 6 6 6 6 6 5 5 6 6 6 7 7 8 8 8 8 8 9 9 9 9 10 10 9 9 9 8 8 8 7 7 7 7 7 7 6 6 5 4 6 6 7 7 7 8 8 8 9 10 11 11 11 12 12 12 11 12
8 8 8 8 8 8 8 7 6 7 7 6 6 6 6 6 6 5 5 5 5 4 4 5 5 5 5 5 6 6 6 6 6 6 6 5 5 6 6 7 8 8 7 8 8 9 9 9 9 9 10 10 10 9 9 9 8 8 8 7 7 6 6 6 6 6 6 5 6 7 7 8 8 7 9 9 9 10 11 11 11 11 11 11 11
9 8 8 8 8 8 7 6 7 7 7 6 6 6 6 6 6 5 5 6 6 4 5 5 5 5 5 5 6 6 6 7 7 7 6 6 6 6 6 7 7 8 8 8 8 8 9 9 9 10 10 10 10 10 9 9 8 8 8 8 7 8 7 6 7 7 7 7 6 7 7 8 8 9 10 10 10 11 11 11 11 12 12 12 11
8 8 8 8 8 8 7 7 7 7 6 6 6 6 6 6 6 6 6 6 6 6 6 5 5 5 5 5 6 6 6 6 6 7 7 7 7 6 6 6 7 7 8 8 8 8 9 9 9 10 10 10 10 10 9 9 9 8 8 8 8 9 11 10 8 8 7 7 7 7 8 8 8 9 9 10 10 11 12 11 11 11 11 11 11
8 8 8 8 8 7 7 7 6 6 6 6 6 6 6 6 7 6 6 6 5 6 6 7 6 6 6 6 6 6 6 6 7 7 7 7 8 7 7 7 7 7 7 8 8 8 9 9 9 9 9 9 9 10 9 10 10 9 9 8 12 18 17 16 10 9 10 9 8 8 9 9 10 10 10 11 11 10 11 11 12 12 11 11 11
8 8 8 8 7 7 6 6 6 6 5 5 6 6 6 6 6 6 6 5 6 6 6 6 6 7 7 7 8 8 8 8 8 8 7 7 8 7 7 7 7 7 7 7 8 8 8 8 9 9 9 9 9 9 9 9 9 9 9 11 17 17 17 17 17 15 10 8 9 8 9 10 10 10 9 10 11 12 12 12 11 11 11 11 11
8 8 8 7 6 6 6 6 7 6 6 5 6 6 6 6 5 5 6 6 6 6 6 7 7 7 7 7 7 7 8 8 7 7 8 8 8 8 7 7 7 6 6 7 7 8 8 8 8 8 9 9 9 9 9 9 9 11 15 18 18 18 18 15 12 14 16 11 9 9 10 10 11 11 10 10 10 11 12 13 12 11 10 10 10
Wind_Direction
191 199 192 196 189 190 186 183 188 184 178 181 177 179 172 169 170 167 143 152 143 143 145 142 130 127 123 125 136 161 160 292 5 23 19 4 346 342 330 341 341 329 332 329 330 324 318 314 313 302 290 287 273 273 274 273 276 269 273 285 287 294 296 298 295 297 296 290 276 282 267 254 274 229 258 265 271 266 251 248 225 211 215 215 212
207 207 201 199 198 194 186 182 178 171 175 179 180 174 168 169 162 148 156 160 150 145 144 140 130 127 126 134 155 150 4 24 11 29 9 355 333 325 332 325 325 317 325 318 318 314 314 313 312 315 307 295 286 277 266 275 278 287 284 273 280 283 280 288 290 294 296 307 307 298 290 239 257 235 244 254 258 256 253 249 227 215 217 215 211
161 160 216 243 224 204 184 179 172 174 172 178 178 173 168 159 158 153 153 151 150 145 148 145 142 137 140 143 104 76 77 12 6 72 91 276 297 308 303 306 296 296 300 295 299 304 306 304 307 311 312 310 307 292 282 276 266 267 274 275 284 284 287 287 291 288 296 296 302 299 298 277 250 270 252 243 249 245 247 246 232 219 225 210 214
188 189 187 192 204 251 209 182 172 173 173 172 170 170 161 157 156 150 149 145 147 150 144 147 142 137 124 103 112 121 103 68 353 234 257 262 272 275 286 287 284 282 282 285 288 287 282 290 293 304 312 311 308 309 296 279 275 272 273 274 278 286 280 277 277 292 291 291 298 314 311 308 294 274 284 285 271 259 234 262 230 220 224 217 217
196 195 190 180 165 169 207 246 192 174 168 158 160 157 156 149 152 145 140 145 147 140 135 132 126 131 138 139 132 131 159 177 215 275 285 267 259 269 274 277 277 279 278 279 280 279 277 270 282 296 299 299 301 300 303 301 294 291 287 287 280 276 280 276 279 279 299 299 299 295 307 302 292 281 278 285 280 266 281 252 236 235 234 233 232
211 187 170 167 166 165 160 150 194 204 160 153 152 153 150 149 148 148 147 146 144 143 140 138 141 141 135 141 148 168 178 188 199 227 243 255 261 266 269 271 274 274 276 274 271 269 270 274 283 291 291 291 294 295 292 289 294 292 290 285 281 277 276 282 278 287 286 285 288 295 294 298 305 291 276 260 267 272 267 269 283 255 234 253 251
190 183 182 177 173 173 166 166 156 162 165 155 148 148 151 153 150 155 154 143 142 135 140 136 138 134 143 145 161 173 185 192 205 221 242 261 269 272 274 269 266 264 259 259 259 260 267 281 290 292 291 292 293 295 299 297 291 289 287 288 284 283 283 286 288 282 277 280 283 278 287 277 282 298 303 283 270 245 256 273 268 248 243 223 252
210 195 191 191 188 180 178 173 170 163 158 157 154 150 146 151 155 150 138 139 145 150 152 146 148 137 156 161 176 172 177 192 220 246 255 264 265 267 265 269 269 267 265 262 262 261 262 268 276 283 286 288 288 290 294 294 298 291 292 297 299 298 293 290 287 283 280 279 275 287 281 284 278 273 288 309 292 278 238 240 259 254 234 222 229
229 216 210 209 200 180 170 159 149 153 156 155 154 153 152 152 149 149 147 143 150 153 150 143 142 142 151 160 163 162 159 197 218 239 272 282 270 273 278 277 277 278 275 271 266 265 264 262 264 265 268 274 280 286 286 288 293 291 286 283 283 283 284 282 280 278 277 276 277 273 280 278 273 280 282 279 260 266 281 215 247 254 251 235 250
217 214 211 211 198 175 168 164 164 154 151 158 160 155 150 148 148 150 151 151 149 150 147 152 152 157 150 132 142 156 180 200 250 274 278 278 285 288 285 284 281 280 281 279 273 263 260 257 256 261 267 270 271 272 274 276 274 273 279 281 279 278 276 279 276 276 277 274 271 275 273 272 267 259 270 274 292 294 297 274 246 268 42 252 305
223 213 213 203 186 177 171 173 167 166 162 160 164 158 153 148 147 148 149 151 154 156 148 146 145 141 140 148 140 130 183 251 291 298 299 296 294 286 282 282 278 276 274 273 274 271 263 255 253 256 260 266 266 264 267 268 267 268 270 271 273 275 282 276 271 268 270 269 271 266 265 272 265 258 259 271 278 279 271 261 251 234 218 226 248
221 217 208 184 182 180 179 172 175 174 166 165 169 160 145 144 148 149 148 152 155 138 133 141 140 143 133 122 121 140 33 281 292 293 294 296 295 290 287 285 284 279 274 272 271 271 269 265 257 253 255 254 258 262 263 262 263 265 265 265 265 263 259 265 274 274 264 268 267 261 266 262 272 258 263 260 266 272 262 253 243 227 239 230 233
226 214 198 184 181 175 163 166 163 159 175 147 144 138 140 143 143 143 153 155 134 134 144 139 147 141 130 129 122 171 219 263 277 289 291 291 291 291 286 281 281 281 278 276 274 273 271 270 270 257 253 257 261 264 263 266 265 264 264 265 265 260 258 257 253 256 270 267 268 270 258 270 270 261 250 257 258 266 268 256 236 229 229 235 234
222 211 198 192 186 180 177 176 175 169 159 149 153 155 154 152 151 146 133 125 132 135 143 142 143 143 141 137 172 195 239 266 277 285 290 289 289 289 283 282 278 275 276 275 275 274 271 273 275 273 263 259 258 260 259 261 265 266 264 261 260 259 256 252 254 255 253 257 258 259 260 247 258 265 248 237 252 255 256 258 245 240 236 237 227
229 215 204 199 189 184 183 180 180 167 160 153 153 155 149 134 131 134 138 144 142 147 150 145 157 150 145 158 161 210 249 265 277 283 285 286 287 290 282 278 275 273 271 270 269 270 270 270 270 272 272 263 251 249 254 256 261 264 264 263 259 258 253 250 249 253 255 253 256 256 263 257 259 263 265 249 250 261 259 268 260 246 242 87 67
230 219 213 195 176 161 152 112 30 5 128 136 140 142 137 136 132 130 124 129 132 133 140 144 156 162 171 143 148 230 260 265 276 282 286 288 291 292 284 276 275 272 271 270 268 267 267 266 270 270 269 266 259 252 253 260 263 266 267 267 265 260 255 246 244 245 249 256 260 263 263 260 258 254 255 248 251 282 306 301 296 277 245 215 228
227 210 196 172 162 150 137 126 120 118 103 97 127 137 129 122 124 132 130 140 144 155 166 179 172 163 153 153 176 222 251 269 276 283 289 294 299 288 282 279 273 274 270 269 268 268 267 266 267 269 267 265 262 257 255 254 262 264 267 269 267 264 260 250 239 241 243 248 252 254 259 263 266 268 268 266 263 273 287 285 272 259 238 238 232
226 207 191 177 163 154 150 146 147 152 150 150 152 125 104 112 135 143 141 150 162 180 179 171 165 150 161 186 189 202 240 265 277 288 293 297 296 291 284 282 280 277 277 270 268 267 262 266 272 273 272 269 268 263 260 259 266 266 268 269 269 264 264 262 264 254 243 245 247 250 250 250 252 257 259 255 250 242 241 251 254 232 237 233 240
224 209 196 181 171 162 158 153 150 148 146 146 142 142 148 151 149 149 151 162 177 177 170 164 162 178 190 195 202 207 229 266 282 288 292 296 299 292 289 286 287 282 281 280 269 266 268 266 268 271 272 275 275 273 271 269 270 269 268 268 267 265 261 263 263 265 258 254 248 245 247 247 248 248 248 244 239 236 233 239 243 238 240 232 233
226 217 199 188 178 167 157 153 144 136 136 139 138 140 137 132 147 159 170 169 165 170 166 161 171 197 202 199 215 213 221 261 276 284 292 294 295 295 290 292 287 286 283 284 285 275 267 268 263 259 261 263 265 266 267 265 267 270 268 266 268 266 268 262 259 260 261 251 254 249 254 249 244 239 240 239 236 234 232 226 225 233 238 233 224
219 196 190 192 180 170 160 149 142 136 141 143 139 133 138 146 154 158 168 157 134 143 165 176 187 210 211 210 220 245 212 240 275 283 288 291 291 292 288 280 281 283 286 284 279 281 275 262 258 257 259 260 261 261 262 261 260 263 259 260 259 267 272 265 264 258 262 261 254 252 251 249 243 236 232 230 222 221 221 219 226 230 236 241 231
192 156 146 148 142 150 146 130 123 127 135 128 128 142 156 147 158 170 155 157 160 160 168 180 192 231 257 254 239 249 262 253 275 283 284 288 288 288 289 283 281 287 286 280 277 272 270 269 262 253 251 254 256 258 259 259 258 258 258 257 259 257 258 258 260 257 256 258 256 254 250 245 238 231 229 225 222 229 242 241 236 236 238 245 244
166 157 146 140 136 127 118 128 130 129 130 132 139 150 150 148 150 143 147 147 150 161 180 187 198 239 273 274 262 264 277 291 287 290 289 291 294 294 289 287 285 281 280 282 279 276 276 274 274 274 273 272 269 266 264 262 262 260 261 260 260 261 260 259 258 257 256 256 255 253 249 244 240 237 231 235 231 230 240 246 252 245 240 244 245
155 143 140 134 131 138 125 111 114 116 129 143 141 140 153 158 145 153 146 147 154 169 206 196 200 238 260 279 288 293 297 286 289 289 294 296 296 293 290 287 285 281 281 281 285 282 282 277 279 283 282 279 275 271 268 265 262 261 259 257 255 254 254 253 250 249 250 249 248 249 248 242 240 236 232 225 224 218 226 237 248 250 248 244 243
148 144 141 138 127 110 101 121 135 147 159 149 140 142 141 143 128 126 136 146 164 186 215 186 206 238 269 271 281 300 299 299 295 295 294 293 290 289 291 292 292 290 288 283 283 283 281 282 282 282 280 278 275 273 269 264 260 259 258 256 255 252 249 246 246 244 243 242 242 245 244 241 237 236 215 206 212 215 226 238 242 249 248 247 250
139 137 128 114 119 131 149 165 166 160 158 159 149 155 155 154 139 147 158 172 176 190 225 187 246 268 270 276 278 283 293 301 297 293 287 284 287 292 296 295 291 289 285 283 283 284 284 284 282 280 279 276 275 270 263 261 256 255 253 252 248 245 241 241 238 238 239 240 238 239 241 236 230 222 209 204 207 222 220 233 240 248 245 246 246
128 127 129 136 154 162 169 174 152 130 107 98 106 132 134 134 134 151 167 171 180 186 261 261 272 276 272 273 281 285 291 296 292 287 283 285 294 300 301 296 289 287 286 287 288 287 286 286 285 282 279 277 274 271 268 267 265 261 256 250 244 238 235 232 232 232 234 233 235 236 238 230 217 201 208 206 221 223 211 224 230 238 224 219 214
138 135 132 142 169 170 160 143 131 116 122 124 121 105 99 132 143 160 170 179 169 207 218 246 249 257 266 275 272 290 290 289 288 291 299 305 307 306 303 302 301 299 297 295 294 293 292 286 283 278 279 276 273 268 261 256 253 254 250 245 239 235 233 232 232 233 233 233 235 236 233 219 215 211 207 213 222 221 212 217 220 229 215 205 206
122 127 136 151 151 128 113 112 117 125 120 86 71 140 152 163 174 199 228 169 166 173 206 231 249 242 225 239 235 271 283 282 282 294 305 308 307 310 310 308 307 304 300 300 299 295 287 283 279 282 278 279 279 274 269 261 255 249 247 244 236 232 227 222 225 226 227 226 230 228 227 212 215 202 212 219 220 219 211 218 217 218 209 198 203
112 123 128 134 119 110 106 113 119 119 128 128 114 64 15 160 171 157 211 214 211 218 165 214 219 179 203 234 200 219 253 270 287 304 309 308 307 307 307 307 307 306 306 305 305 299 293 290 290 288 288 288 286 285 281 277 273 265 253 243 238 231 225 222 222 225 222 224 227 226 226 220 218 210 214 221 222 218 211 209 218 204 194 198 194
123 134 144 150 147 139 122 120 123 116 114 113 115 125 91 37 246 244 265 80 182 236 246 264 265 215 194 241 238 222 259 290 309 316 314 314 312 312 313 313 312 312 310 310 308 296 294 294 296 292 290 290 288 288 287 288 285 283 273 256 236 231 228 224 222 218 219 221 222 223 223 220 221 217 219 216 217 213 207 210 212 195 194 186 181
151 157 155 152 150 131 131 129 121 114 120 134 142 130 123 130 334 306 262 273 288 293 278 258 240 235 238 248 287 319 318 315 316 318 319 316 317 316 316 317 316 313 309 308 300 301 299 299 300 299 298 295 295 294 293 290 291 291 286 267 245 228 224 226 221 215 218 218 219 220 218 217 216 220 218 216 208 208 202 202 201 194 188 181 177
148 142 146 143 132 131 129 120 123 131 142 135 124 119 128 141 164 270 336 40 36 26 43 223 231 240 269 315 297 320 306 311 316 320 321 321 322 322 320 318 316 311 309 308 303 305 307 305 303 303 302 300 299 299 296 294 294 299 293 272 254 237 223 227 214 215 215 214 213 216 214 214 215 218 218 209 199 203 197 195 190 180 166 149 140
141 142 139 134 131 128 124 129 139 152 152 147 148 151 157 156 168 169 17 340 352 348 0 25 15 26 55 22 332 312 314 318 323 322 324 327 327 325 324 318 310 308 309 306 310 307 307 306 306 305 305 302 301 301 302 301 302 300 296 286 267 253 237 220 210 216 216 215 215 215 210 210 209 212 212 205 196 190 185 189 173 163 160 152 145
134 132 130 128 129 133 137 143 144 144 144 148 155 156 162 162 128 131 166 201 243 280 295 317 11 64 53 355 321 316 320 324 325 323 327 329 327 324 321 320 328 334 330 324 315 313 312 311 311 312 311 312 309 307 304 306 305 304 301 301 294 274 251 226 217 212 211 213 213 214 210 206 205 201 197 188 185 185 185 176 175 163 151 139 137
128 122 119 122 125 131 138 142 145 151 159 168 165 152 129 129 145 173 176 194 181 202 310 272 278 310 331 316 302 313 321 323 324 327 331 331 329 328 330 331 326 326 321 318 318 315 313 312 313 312 312 311 310 307 306 306 306 303 301 300 299 291 273 247 230 217 212 209 209 209 205 201 193 188 182 178 178 178 169 168 156 144 133 126 124
121 119 126 128 128 133 141 146 156 157 151 146 133 110 105 99 98 120 142 158 205 178 212 305 352 347 353 295 304 321 319 321 322 330 338 337 330 328 325 324 325 321 322 321 321 321 321 320 316 315 316 315 313 311 309 308 308 307 301 297 293 291 280 263 243 229 219 213 209 202 199 197 185 178 170 172 170 163 152 144 139 134 134 135 131
127 134 138 135 129 135 142 151 148 129 116 105 88 107 105 116 139 139 112 90 177 111 32 352 41 307 307 301 325 329 317 316 322 338 343 340 339 337 334 329 326 322 319 320 322 322 321 320 322 322 321 318 317 318 316 313 313 312 310 304 296 290 297 290 266 235 223 218 210 198 192 185 175 168 162 157 150 142 138 134 126 117 115 125 128
118 128 129 138 136 134 128 123 107 94 75 71 101 115 101 109 96 70 67 102 74 68 103 352 270 249 262 277 314 318 335 337 348 346 343 341 336 334 332 330 328 326 324 324 325 326 324 324 326 325 321 321 321 320 321 318 317 317 314 312 309 311 318 318 314 318 172 175 173 164 161 155 153 152 149 142 140 138 135 130 129 130 131 130 128
117 109 115 108 89 81 82 79 86 93 116 118 41 48 62 63 101 153 143 108 104 147 165 190 258 251 255 284 301 335 343 328 328 336 338 340 337 335 334 333 334 331 330 328 330 331 330 329 329 327 325 323 325 324 325 324 323 321 321 326 326 325 323 326 331 348 67 98 115 125 130 131 130 129 129 134 136 136 135 136 138 134 132 130 125
103 91 73 64 80 83 74 76 67 71 69 65 66 62 52 33 359 147 134 150 138 133 202 225 245 255 253 258 289 313 318 315 320 329 340 336 336 333 334 334 335 333 332 332 333 333 333 331 330 328 327 327 327 329 329 330 333 331 333 335 339 338 337 346 352 9 59 87 100 110 121 125 128 127 126 126 126 126 126 126 124 123 123 123 125
88 83 75 73 77 80 81 75 83 74 72 67 57 52 42 32 33 49 50 41 30 23 13 330 273 271 281 288 302 325 328 314 311 328 335 341 336 335 331 329 331 331 331 331 332 330 331 333 331 331 331 332 332 333 335 338 340 339 339 344 348 351 356 353 354 7 51 84 89 104 114 119 118 113 117 122 122 120 119 118 121 123 124 124 126
81 80 80 77 73 77 91 96 84 73 61 62 60 56 51 50 47 50 51 47 39 30 28 9 345 345 332 323 327 322 321 317 324 331 336 336 336 334 333 331 329 331 332 333 333 332 330 333 335 334 336 336 337 336 338 339 338 345 348 348 353 1 5 357 4 14 33 77 84 89 93 100 107 113 118 118 119 118 120 120 121 122 124 126 127
86 85 82 80 82 80 66 69 67 64 67 68 66 55 48 51 48 45 49 45 40 39 38 19 7 6 359 351 348 344 341 327 325 334 341 339 337 335 334 331 330 332 336 338 339 337 337 338 339 339 339 340 343 345 344 343 345 349 353 353 356 7 10 7 5 5 34 74 88 91 96 96 101 109 114 116 118 118 120 121 122 124 125 123 123
85 86 85 79 68 69 62 55 60 60 61 59 55 50 43 44 42 35 39 41 34 35 32 24 18 17 8 1 351 344 341 335 327 331 345 343 335 332 332 334 334 333 334 341 342 342 342 344 342 344 346 347 349 351 351 349 352 355 355 3 5 11 10 8 359 355 29 76 85 91 95 102 104 107 109 112 116 119 120 122 122 122 120 123 123
77 79 79 82 75 66 61 55 52 56 56 55 55 50 42 40 34 32 29 29 29 28 22 19 19 20 9 360 346 345 343 343 339 334 334 339 339 335 336 336 333 333 337 340 344 346 347 346 348 347 350 350 351 354 355 354 356 360 4 5 11 10 8 12 15 28 33 53 84 92 96 95 99 102 107 110 110 109 110 111 113 116 117 116 116
73 73 72 72 73 70 63 58 55 51 52 50 49 51 43 36 29 23 25 26 24 19 21 12 14 13 7 1 355 349 345 345 341 338 337 333 336 337 337 334 334 339 343 345 348 350 350 351 351 352 353 355 354 357 359 358 359 3 9 12 10 20 17 23 32 37 39 40 59 88 93 99 101 104 102 103 104 105 106 107 109 110 111 114 114
69 69 67 67 69 69 62 58 57 55 52 52 51 50 45 38 32 27 21 19 22 23 20 14 16 11 5 4 358 349 345 346 341 341 338 341 341 338 337 334 341 348 348 349 351 353 354 354 354 355 356 357 359 1 1 3 4 7 11 19 23 31 34 36 45 45 46 50 52 66 85 93 95 95 99 101 104 108 107 107 107 106 108 109 110
64 66 68 64 65 65 65 64 60 54 53 52 50 47 42 36 29 22 16 11 12 12 14 14 12 10 6 1 356 352 347 348 350 347 344 342 343 344 340 337 342 350 354 355 354 355 356 358 358 358 358 360 2 3 5 6 11 8 17 21 32 38 42 42 44 50 56 61 61 64 69 78 85 89 91 96 98 99 100 101 103 104 104 105 108
62 61 64 64 66 66 66 69 68 62 53 49 53 50 42 35 28 18 13 11 9 11 9 8 6 7 4 358 357 355 354 353 352 348 344 340 343 342 344 339 342 348 356 359 359 359 358 359 360 1 1 2 4 7 10 10 12 18 21 32 37 40 42 46 44 47 56 62 63 69 72 78 79 83 85 89 93 95 95 95 97 100 102 106 106
62 60 59 59 61 61 63 66 65 61 57 54 54 50 45 39 31 21 17 19 16 11 9 5 2 2 1 360 356 355 352 349 349 348 346 343 343 342 346 345 341 344 354 2 3 2 1 1 1 3 4 4 6 8 13 17 20 24 30 34 39 44 46 48 49 49 55 61 64 66 72 75 81 81 82 81 85 86 92 94 94 96 100 102 104